sat.trackr.live / text

‹ back to catalog

STARLINK-11175 [DTC]

NORAD 60191 · 2024-124J

PAYLOAD ACTIVE UNKNOWN

§ Identity

Operator
Country
US
Launch date
2024-07-03
Launch site
AFETR
Launch vehicle
Mass (kg)
RCS (m²)

Purposes: comms

External: N2YO · Heavens-Above · Gunter

§ Orbital elements

Epoch: 2026-09-20T08:11:46.008672Z

Period
91.74 min
Inclination
53.1582°
Eccentricity
0.0001178
Mean motion
15.69711567 rev/d
Perigee alt
358.9 km
Apogee alt
360.5 km
Semi-major
6,737.9 km
B*
7.5442e-6
RAAN
281.8882°
Arg perigee
80.3014°
Mean anomaly
279.8137°
Rev number
12,710

§ Raw data

STARLINK-11175 [DTC]1 60191U 24124J   26263.34150473  .00000325  00000+0  75442-5 0  99922 60191  53.1582 281.8882 0001178  80.3014 279.8137 15.69711567127109

JSON: /api/v1/satellites/60191 · /tle

For live sub-satellite position, see the globe view (requires WebGL).

§ Visibility from observer

Set your observer location to see the next 7 days of passes ≥ 10°. The values pass through the URL so the page stays shareable.

No JS? Fill the form by hand. The geolocation button needs JavaScript.